Flag for Switzerland Weather past 2 weeks in Bellinzona, Ticino, Switzerland

Now
70 °F

Mild.


Feels Like: 70 °F
Forecast: 60 / 81 °F
Wind: 10 mph from East

Location: Locarno-Magadino

Current Time: Jul 31, 2015 at 3:50:32 AM

Latest Report: Jul 31, 2015 at 3:00 AM


Visibility: N/A

Pressure: 29.86 "Hg

Humidity: 47%

Dew point: 48 °F

Location of BellinzonaLocation

Historic Weather in Bellinzona — Graph

°F

Bellinzona temperature yesterday

Maximum temperature yesterday: 84 °F (at 4:00 PM)
Minimum temperature yesterday: 64 °F (at 7:00 AM)
Average temperature yesterday: 74 °F

Past Weeks' High & Low Weather Summary

 TemperatureHumidityPressure
High94 °F (Jul 21, 5:00 PM)97% (Jul 27, 2:00 AM)30.11 "Hg (Jul 27, 2:00 AM)
Low60 °F (Jul 26, 2:00 AM)35% (Jul 26, 3:00 AM)29.61 "Hg (Jul 27, 5:00 PM)
Average77 °F66%29.86 "Hg
* Reported Jul 16 2:00 AM — Jul 31 2:00 AM, Bellinzona, Weather by CustomWeather, © 2015

Note: Actual official high and low records may vary slightly from our data, if they occured in-between our weather recording intervals... More about our weather records

Advertising

Bellinzona weather history for previous 24 hours

 ConditionsComfort  
Time TempWeatherWind HumidityBarometerVisibility
2:00 AM
Fri, Jul 31
70 °FMild.14 mph56%29.87 "HgN/A
1:00 AM71 °FMild.13 mph52%29.85 "HgN/A
12:00 AM71 °FMild.13 mph53%29.83 "HgN/A
10:00 PM
Thu, Jul 30
70 °FMild.2 mph92%29.83 "HgN/A
9:00 PM71 °FMild.1 mph88%29.80 "HgN/A
8:00 PM77 °FWarm.5 mph60%29.78 "HgN/A
7:00 PM80 °FWarm.5 mph52%29.75 "HgN/A
6:00 PM81 °FWarm.3 mph49%29.75 "HgN/A
5:00 PM82 °FWarm.7 mph50%29.74 "HgN/A
4:00 PM84 °FWarm.8 mph47%29.74 "HgN/A
3:00 PM83 °FWarm.9 mph46%29.75 "HgN/A
2:00 PM82 °FWarm.9 mph48%29.77 "HgN/A
1:00 PM81 °FWarm.8 mph49%29.79 "HgN/A
12:00 PM78 °FWarm.5 mph48%29.81 "HgN/A
11:00 AM74 °FMild.3 mph49%29.82 "HgN/A
10:00 AM72 °FMild.2 mph51%29.82 "HgN/A
9:00 AM71 °FMild.2 mph57%29.83 "HgN/A
8:00 AM67 °FMild.1 mph65%29.83 "HgN/A
7:00 AM64 °FMild.2 mph75%29.82 "HgN/A
6:00 AM65 °FMild.3 mph67%29.80 "HgN/A
4:00 AM67 °FMild.5 mph63%29.78 "HgN/A
3:00 AM67 °FMild.5 mph70%29.78 "HgN/A
Weather by CustomWeather, © 2015

See weather overviewHow to use our weather pages